contact:dominique.lefevre@mio.osupytheas.fr, maurice.libes@osupytheas.fr, didier.mallarino@osupytheas.fr
Project:EMSO http://www.emso-fr.org/EMSO-France
Depth: 2436.0 m
Title:EMSO Ligure Ouest : Data MII capteur MICROCAT
DateTime_Computer,Latitude,Longitude,Temperature,Conductivity,Pressure,DateTime_Instrument
DateTime_Computer,Latitude,Longitude,degC,S m-1,dbar,DateTime_Instrument
2023-11-03T00:00:33Z,42.805,6.029,13.3093,4.60168,2470.777,2023-11-03T02:02:59Z
2023-11-03T00:03:36Z,42.805,6.029,13.3094,4.60150,2470.777,2023-11-03T02:06:02Z
2023-11-03T00:06:39Z,42.805,6.029,13.3107,4.60185,2470.777,2023-11-03T02:09:05Z
2023-11-03T00:09:42Z,42.805,6.029,13.3097,4.60142,2470.763,2023-11-03T02:12:08Z
2023-11-03T00:12:45Z,42.805,6.029,13.3111,4.60143,2470.777,2023-11-03T02:15:11Z
2023-11-03T00:15:48Z,42.805,6.029,13.3116,4.60147,2470.777,2023-11-03T02:18:14Z
2023-11-03T00:18:51Z,42.805,6.029,13.3102,4.60144,2470.763,2023-11-03T02:21:17Z
2023-11-03T00:21:54Z,42.805,6.029,13.3109,4.60147,2470.763,2023-11-03T02:24:20Z
2023-11-03T00:24:57Z,42.805,6.029,13.3104,4.60145,2470.787,2023-11-03T02:27:23Z
2023-11-03T00:28:00Z,42.805,6.029,13.3100,4.60132,2470.763,2023-11-03T02:30:26Z
2023-11-03T00:31:03Z,42.805,6.029,13.3120,4.60157,2470.74,2023-11-03T02:33:29Z
2023-11-03T00:34:06Z,42.805,6.029,13.3101,4.60149,2470.777,2023-11-03T02:36:33Z
2023-11-03T00:37:09Z,42.805,6.029,13.3100,4.60146,2470.81,2023-11-03T02:39:36Z
2023-11-03T00:40:13Z,42.805,6.029,13.3104,4.60143,2470.754,2023-11-03T02:42:39Z
2023-11-03T00:43:16Z,42.805,6.029,13.3101,4.60139,2470.777,2023-11-03T02:45:42Z
2023-11-03T00:46:19Z,42.805,6.029,13.3111,4.60134,2470.8,2023-11-03T02:48:45Z
2023-11-03T00:49:22Z,42.805,6.029,13.3118,4.60137,2470.777,2023-11-03T02:51:48Z
2023-11-03T00:52:25Z,42.805,6.029,13.3107,4.60139,2470.787,2023-11-03T02:54:51Z
2023-11-03T00:55:28Z,42.805,6.029,13.3112,4.60153,2470.763,2023-11-03T02:57:54Z
2023-11-03T00:58:31Z,42.805,6.029,13.3117,4.60137,2470.73,2023-11-03T03:00:57Z
2023-11-03T01:01:34Z,42.805,6.029,13.3112,4.60134,2470.777,2023-11-03T03:04:00Z
2023-11-03T01:04:37Z,42.805,6.029,13.3125,4.60125,2470.717,2023-11-03T03:07:03Z
2023-11-03T01:07:40Z,42.805,6.029,13.3106,4.60135,2470.754,2023-11-03T03:10:06Z
2023-11-03T01:10:43Z,42.805,6.029,13.3113,4.60119,2470.74,2023-11-03T03:13:09Z
2023-11-03T01:13:46Z,42.805,6.029,13.3109,4.60132,2470.754,2023-11-03T03:16:13Z
2023-11-03T01:16:49Z,42.805,6.029,13.3103,4.60138,2470.74,2023-11-03T03:19:16Z
2023-11-03T01:19:53Z,42.805,6.029,13.3101,4.60145,2470.777,2023-11-03T03:22:19Z
2023-11-03T01:22:56Z,42.805,6.029,13.3104,4.60157,2470.754,2023-11-03T03:25:22Z
2023-11-03T01:25:59Z,42.805,6.029,13.3104,4.60148,2470.73,2023-11-03T03:28:25Z
2023-11-03T01:29:02Z,42.805,6.029,13.3110,4.60139,2470.73,2023-11-03T03:31:28Z
2023-11-03T01:32:05Z,42.805,6.029,13.3103,4.60146,2470.707,2023-11-03T03:34:31Z
2023-11-03T01:35:08Z,42.805,6.029,13.3110,4.60150,2470.73,2023-11-03T03:37:34Z
2023-11-03T01:38:11Z,42.805,6.029,13.3103,4.60152,2470.74,2023-11-03T03:40:37Z
2023-11-03T01:41:14Z,42.805,6.029,13.3093,4.60144,2470.763,2023-11-03T03:43:40Z
2023-11-03T01:44:17Z,42.805,6.029,13.3098,4.60140,2470.754,2023-11-03T03:46:43Z
2023-11-03T01:47:20Z,42.805,6.029,13.3117,4.60126,2470.754,2023-11-03T03:49:46Z
2023-11-03T01:50:23Z,42.805,6.029,13.3112,4.60126,2470.717,2023-11-03T03:52:49Z
2023-11-03T01:53:26Z,42.805,6.029,13.3116,4.60144,2470.74,2023-11-03T03:55:52Z
2023-11-03T01:56:29Z,42.805,6.029,13.3105,4.60139,2470.74,2023-11-03T03:58:56Z
2023-11-03T01:59:32Z,42.805,6.029,13.3112,4.60131,2470.73,2023-11-03T04:01:59Z
2023-11-03T02:02:36Z,42.805,6.029,13.3095,4.60132,2470.717,2023-11-03T04:05:02Z
2023-11-03T02:05:39Z,42.805,6.029,13.3093,4.60160,2470.73,2023-11-03T04:08:05Z
2023-11-03T02:08:42Z,42.805,6.029,13.3126,4.60173,2470.707,2023-11-03T04:11:08Z
2023-11-03T02:11:45Z,42.805,6.029,13.3121,4.60150,2470.73,2023-11-03T04:14:11Z
2023-11-03T02:14:48Z,42.805,6.029,13.3119,4.60185,2470.717,2023-11-03T04:17:14Z
2023-11-03T02:17:51Z,42.805,6.029,13.3106,4.60162,2470.73,2023-11-03T04:20:17Z
2023-11-03T02:20:54Z,42.805,6.029,13.3096,4.60148,2470.707,2023-11-03T04:23:20Z
2023-11-03T02:23:57Z,42.805,6.029,13.3096,4.60165,2470.763,2023-11-03T04:26:23Z
2023-11-03T02:27:00Z,42.805,6.029,13.3095,4.60154,2470.707,2023-11-03T04:29:26Z
2023-11-03T02:30:03Z,42.805,6.029,13.3107,4.60178,2470.73,2023-11-03T04:32:29Z
2023-11-03T02:33:06Z,42.805,6.029,13.3107,4.60162,2470.717,2023-11-03T04:35:32Z
2023-11-03T02:36:09Z,42.805,6.029,13.3102,4.60154,2470.707,2023-11-03T04:38:36Z
2023-11-03T02:39:12Z,42.805,6.029,13.3101,4.60181,2470.73,2023-11-03T04:41:39Z
2023-11-03T02:42:16Z,42.805,6.029,13.3102,4.60187,2470.754,2023-11-03T04:44:42Z
2023-11-03T02:45:19Z,42.805,6.029,13.3061,4.60165,2470.717,2023-11-03T04:47:45Z
2023-11-03T02:48:22Z,42.805,6.029,13.3076,4.60172,2470.707,2023-11-03T04:50:48Z
2023-11-03T02:51:25Z,42.805,6.029,13.3089,4.60207,2470.693,2023-11-03T04:53:51Z
2023-11-03T02:54:28Z,42.805,6.029,13.3102,4.60184,2470.684,2023-11-03T04:56:54Z
2023-11-03T02:57:31Z,42.805,6.029,13.3107,4.60139,2470.707,2023-11-03T04:59:57Z
2023-11-03T03:00:34Z,42.805,6.029,13.3113,4.60136,2470.73,2023-11-03T05:03:00Z
2023-11-03T03:03:37Z,42.805,6.029,13.3123,4.60142,2470.73,2023-11-03T05:06:03Z
2023-11-03T03:06:40Z,42.805,6.029,13.3130,4.60137,2470.754,2023-11-03T05:09:06Z
2023-11-03T03:09:43Z,42.805,6.029,13.3123,4.60142,2470.684,2023-11-03T05:12:09Z
2023-11-03T03:12:46Z,42.805,6.029,13.3119,4.60132,2470.693,2023-11-03T05:15:12Z
2023-11-03T03:15:49Z,42.805,6.029,13.3122,4.60165,2470.73,2023-11-03T05:18:16Z
2023-11-03T03:18:52Z,42.805,6.029,13.3116,4.60170,2470.684,2023-11-03T05:21:19Z
2023-11-03T03:21:56Z,42.805,6.029,13.3111,4.60171,2470.67,2023-11-03T05:24:22Z
2023-11-03T03:24:59Z,42.805,6.029,13.3101,4.60140,2470.73,2023-11-03T05:27:25Z
2023-11-03T03:28:02Z,42.805,6.029,13.3100,4.60125,2470.707,2023-11-03T05:30:28Z
2023-11-03T03:31:05Z,42.805,6.029,13.3123,4.60127,2470.717,2023-11-03T05:33:31Z
2023-11-03T03:34:08Z,42.805,6.029,13.3124,4.60122,2470.707,2023-11-03T05:36:34Z
2023-11-03T03:37:11Z,42.805,6.029,13.3098,4.60151,2470.684,2023-11-03T05:39:37Z
2023-11-03T03:40:14Z,42.805,6.029,13.3116,4.60132,2470.684,2023-11-03T05:42:40Z
2023-11-03T03:43:17Z,42.805,6.029,13.3112,4.60127,2470.707,2023-11-03T05:45:43Z
2023-11-03T03:46:20Z,42.805,6.029,13.3128,4.60125,2470.693,2023-11-03T05:48:46Z
2023-11-03T03:49:23Z,42.805,6.029,13.3124,4.60140,2470.684,2023-11-03T05:51:49Z
2023-11-03T03:52:26Z,42.805,6.029,13.3125,4.60137,2470.707,2023-11-03T05:54:52Z
2023-11-03T03:55:29Z,42.805,6.029,13.3111,4.60125,2470.717,2023-11-03T05:57:55Z
2023-11-03T03:58:32Z,42.805,6.029,13.3096,4.60135,2470.656,2023-11-03T06:00:59Z
2023-11-03T04:01:35Z,42.805,6.029,13.3101,4.60157,2470.707,2023-11-03T06:04:02Z
2023-11-03T04:04:39Z,42.805,6.029,13.3101,4.60140,2470.707,2023-11-03T06:07:05Z
2023-11-03T04:07:42Z,42.805,6.029,13.3104,4.60154,2470.707,2023-11-03T06:10:08Z
2023-11-03T04:10:45Z,42.805,6.029,13.3112,4.60134,2470.67,2023-11-03T06:13:11Z
2023-11-03T04:13:48Z,42.805,6.029,13.3106,4.60133,2470.707,2023-11-03T06:16:14Z
2023-11-03T04:16:51Z,42.805,6.029,13.3104,4.60157,2470.707,2023-11-03T06:19:17Z
2023-11-03T04:19:54Z,42.805,6.029,13.3107,4.60165,2470.73,2023-11-03T06:22:20Z
2023-11-03T04:22:57Z,42.805,6.029,13.3098,4.60151,2470.693,2023-11-03T06:25:23Z
2023-11-03T04:26:00Z,42.805,6.029,13.3093,4.60142,2470.707,2023-11-03T06:28:26Z
2023-11-03T04:29:03Z,42.805,6.029,13.3102,4.60140,2470.707,2023-11-03T06:31:29Z
2023-11-03T04:32:06Z,42.805,6.029,13.3108,4.60157,2470.707,2023-11-03T06:34:32Z
2023-11-03T04:35:09Z,42.805,6.029,13.3097,4.60150,2470.693,2023-11-03T06:37:36Z
2023-11-03T04:38:12Z,42.805,6.029,13.3104,4.60162,2470.717,2023-11-03T06:40:39Z
2023-11-03T04:41:15Z,42.805,6.029,13.3111,4.60131,2470.707,2023-11-03T06:43:42Z
2023-11-03T04:44:19Z,42.805,6.029,13.3116,4.60132,2470.693,2023-11-03T06:46:45Z
2023-11-03T04:47:22Z,42.805,6.029,13.3098,4.60125,2470.693,2023-11-03T06:49:48Z
2023-11-03T04:50:25Z,42.805,6.029,13.3095,4.60152,2470.707,2023-11-03T06:52:51Z
2023-11-03T04:53:28Z,42.805,6.029,13.3110,4.60161,2470.717,2023-11-03T06:55:54Z
2023-11-03T04:56:31Z,42.805,6.029,13.3119,4.60159,2470.717,2023-11-03T06:58:57Z
2023-11-03T04:59:34Z,42.805,6.029,13.3118,4.60153,2470.67,2023-11-03T07:02:00Z
2023-11-03T05:02:37Z,42.805,6.029,13.3119,4.60139,2470.717,2023-11-03T07:05:03Z
2023-11-03T05:05:40Z,42.805,6.029,13.3124,4.60149,2470.73,2023-11-03T07:08:06Z
2023-11-03T05:08:43Z,42.805,6.029,13.3119,4.60160,2470.717,2023-11-03T07:11:09Z
2023-11-03T05:11:46Z,42.805,6.029,13.3114,4.60139,2470.693,2023-11-03T07:14:12Z
2023-11-03T05:14:49Z,42.805,6.029,13.3116,4.60145,2470.754,2023-11-03T07:17:15Z
2023-11-03T05:17:52Z,42.805,6.029,13.3122,4.60144,2470.703,2023-11-03T07:20:19Z
2023-11-03T05:20:56Z,42.805,6.029,13.3121,4.60155,2470.754,2023-11-03T07:23:22Z
2023-11-03T05:23:59Z,42.805,6.029,13.3115,4.60154,2470.74,2023-11-03T07:26:25Z
2023-11-03T05:27:02Z,42.805,6.029,13.3093,4.60140,2470.73,2023-11-03T07:29:28Z
2023-11-03T05:30:05Z,42.805,6.029,13.3093,4.60147,2470.73,2023-11-03T07:32:31Z
2023-11-03T05:33:08Z,42.805,6.029,13.3109,4.60132,2470.693,2023-11-03T07:35:34Z
2023-11-03T05:36:11Z,42.805,6.029,13.3098,4.60140,2470.717,2023-11-03T07:38:37Z
2023-11-03T05:39:14Z,42.805,6.029,13.3116,4.60131,2470.73,2023-11-03T07:41:40Z
2023-11-03T05:42:17Z,42.805,6.029,13.3098,4.60140,2470.717,2023-11-03T07:44:43Z
2023-11-03T05:45:20Z,42.805,6.029,13.3102,4.60131,2470.707,2023-11-03T07:47:46Z
2023-11-03T05:48:23Z,42.805,6.029,13.3092,4.60114,2470.717,2023-11-03T07:50:49Z
2023-11-03T05:51:26Z,42.805,6.029,13.3084,4.60114,2470.74,2023-11-03T07:53:52Z
2023-11-03T05:54:29Z,42.805,6.029,13.3069,4.60116,2470.707,2023-11-03T07:56:55Z
2023-11-03T05:57:32Z,42.805,6.029,13.3073,4.60127,2470.707,2023-11-03T07:59:59Z
2023-11-03T06:00:35Z,42.805,6.029,13.3072,4.60117,2470.754,2023-11-03T08:03:02Z
2023-11-03T06:03:39Z,42.805,6.029,13.3092,4.60121,2470.717,2023-11-03T08:06:05Z
2023-11-03T06:06:42Z,42.805,6.029,13.3076,4.60135,2470.74,2023-11-03T08:09:08Z
2023-11-03T06:09:45Z,42.805,6.029,13.3076,4.60183,2470.74,2023-11-03T08:12:11Z
2023-11-03T06:12:48Z,42.805,6.029,13.3076,4.60168,2470.754,2023-11-03T08:15:14Z
2023-11-03T06:15:51Z,42.805,6.029,13.3082,4.60147,2470.754,2023-11-03T08:18:17Z
2023-11-03T06:18:54Z,42.805,6.029,13.3078,4.60172,2470.74,2023-11-03T08:21:20Z
2023-11-03T06:21:57Z,42.805,6.029,13.3069,4.60155,2470.74,2023-11-03T08:24:23Z
2023-11-03T06:25:00Z,42.805,6.029,13.3074,4.60145,2470.717,2023-11-03T08:27:26Z
2023-11-03T06:28:03Z,42.805,6.029,13.3091,4.60135,2470.717,2023-11-03T08:30:29Z
2023-11-03T06:31:06Z,42.805,6.029,13.3091,4.60155,2470.754,2023-11-03T08:33:32Z
2023-11-03T06:34:09Z,42.805,6.029,13.3085,4.60183,2470.74,2023-11-03T08:36:35Z
2023-11-03T06:37:12Z,42.805,6.029,13.3097,4.60173,2470.73,2023-11-03T08:39:39Z
2023-11-03T06:40:15Z,42.805,6.029,13.3079,4.60201,2470.754,2023-11-03T08:42:42Z
2023-11-03T06:43:19Z,42.805,6.029,13.3092,4.60185,2470.73,2023-11-03T08:45:45Z
2023-11-03T06:46:22Z,42.805,6.029,13.3098,4.60221,2470.73,2023-11-03T08:48:48Z
2023-11-03T06:49:25Z,42.805,6.029,13.3067,4.60187,2470.754,2023-11-03T08:51:51Z
2023-11-03T06:52:28Z,42.805,6.029,13.3081,4.60164,2470.74,2023-11-03T08:54:54Z
2023-11-03T06:55:31Z,42.805,6.029,13.3093,4.60142,2470.754,2023-11-03T08:57:57Z
2023-11-03T06:58:34Z,42.805,6.029,13.3063,4.60119,2470.74,2023-11-03T09:01:00Z
2023-11-03T07:01:37Z,42.805,6.029,13.3054,4.60173,2470.763,2023-11-03T09:04:03Z
2023-11-03T07:04:40Z,42.805,6.029,13.3080,4.60147,2470.763,2023-11-03T09:07:06Z
2023-11-03T07:07:43Z,42.805,6.029,13.3063,4.60132,2470.763,2023-11-03T09:10:09Z
2023-11-03T07:10:46Z,42.805,6.029,13.3089,4.60138,2470.74,2023-11-03T09:13:12Z
2023-11-03T07:13:49Z,42.805,6.029,13.3089,4.60156,2470.763,2023-11-03T09:16:15Z
2023-11-03T07:16:52Z,42.805,6.029,13.3072,4.60153,2470.74,2023-11-03T09:19:19Z
2023-11-03T07:19:55Z,42.805,6.029,13.3071,4.60135,2470.74,2023-11-03T09:22:22Z
2023-11-03T07:22:59Z,42.805,6.029,13.3079,4.60149,2470.777,2023-11-03T09:25:25Z
2023-11-03T07:26:02Z,42.805,6.029,13.3090,4.60153,2470.74,2023-11-03T09:28:28Z
2023-11-03T07:29:05Z,42.805,6.029,13.3091,4.60155,2470.763,2023-11-03T09:31:31Z
2023-11-03T07:32:07Z,42.805,6.029,13.3084,4.60155,2470.763,2023-11-03T09:34:33Z
2023-11-03T07:35:10Z,42.805,6.029,13.3088,4.60170,2470.763,2023-11-03T09:37:36Z
2023-11-03T07:38:13Z,42.805,6.029,13.3077,4.60171,2470.777,2023-11-03T09:40:40Z
2023-11-03T07:41:16Z,42.805,6.029,13.3087,4.60195,2470.763,2023-11-03T09:43:43Z
2023-11-03T07:44:20Z,42.805,6.029,13.3068,4.60160,2470.763,2023-11-03T09:46:46Z
2023-11-03T07:47:23Z,42.805,6.029,13.3092,4.60158,2470.763,2023-11-03T09:49:49Z
2023-11-03T07:50:26Z,42.805,6.029,13.3058,4.60147,2470.81,2023-11-03T09:52:52Z
2023-11-03T07:53:29Z,42.805,6.029,13.3069,4.60149,2470.763,2023-11-03T09:55:55Z
2023-11-03T07:56:32Z,42.805,6.029,13.3072,4.60141,2470.763,2023-11-03T09:58:58Z
2023-11-03T07:59:35Z,42.805,6.029,13.3052,4.60162,2470.8,2023-11-03T10:02:01Z
2023-11-03T08:02:38Z,42.805,6.029,13.3061,4.60151,2470.787,2023-11-03T10:05:04Z
2023-11-03T08:05:41Z,42.805,6.029,13.3054,4.60155,2470.787,2023-11-03T10:08:07Z
2023-11-03T08:08:44Z,42.805,6.029,13.3061,4.60173,2470.8,2023-11-03T10:11:10Z
2023-11-03T08:11:47Z,42.805,6.029,13.3063,4.60125,2470.8,2023-11-03T10:14:13Z
2023-11-03T08:14:50Z,42.805,6.029,13.3061,4.60156,2470.8,2023-11-03T10:17:17Z
2023-11-03T08:17:53Z,42.805,6.029,13.3061,4.60183,2470.824,2023-11-03T10:20:20Z
2023-11-03T08:20:57Z,42.805,6.029,13.3066,4.60160,2470.824,2023-11-03T10:23:23Z
2023-11-03T08:24:00Z,42.805,6.029,13.3063,4.60147,2470.8,2023-11-03T10:26:26Z
2023-11-03T08:27:03Z,42.805,6.029,13.3065,4.60225,2470.824,2023-11-03T10:29:29Z
2023-11-03T08:30:06Z,42.805,6.029,13.3077,4.60202,2470.847,2023-11-03T10:32:32Z
2023-11-03T08:33:09Z,42.805,6.029,13.3088,4.60167,2470.824,2023-11-03T10:35:35Z
2023-11-03T08:36:12Z,42.805,6.029,13.3048,4.60158,2470.814,2023-11-03T10:38:38Z
2023-11-03T08:39:15Z,42.805,6.029,13.3061,4.60185,2470.847,2023-11-03T10:41:41Z
2023-11-03T08:42:18Z,42.805,6.029,13.3048,4.60175,2470.787,2023-11-03T10:44:44Z
2023-11-03T08:45:21Z,42.805,6.029,13.3066,4.60140,2470.8,2023-11-03T10:47:47Z
2023-11-03T08:48:24Z,42.805,6.029,13.3052,4.60155,2470.824,2023-11-03T10:50:50Z
2023-11-03T08:51:27Z,42.805,6.029,13.3066,4.60147,2470.847,2023-11-03T10:53:54Z
2023-11-03T08:54:30Z,42.805,6.029,13.3054,4.60124,2470.824,2023-11-03T10:56:57Z
2023-11-03T08:57:34Z,42.805,6.029,13.3098,4.60168,2470.833,2023-11-03T11:00:00Z
2023-11-03T09:00:37Z,42.805,6.029,13.3064,4.60162,2470.81,2023-11-03T11:03:03Z
2023-11-03T09:03:40Z,42.805,6.029,13.3054,4.60145,2470.824,2023-11-03T11:06:06Z
2023-11-03T09:06:43Z,42.805,6.029,13.3058,4.60157,2470.833,2023-11-03T11:09:09Z
2023-11-03T09:09:46Z,42.805,6.029,13.3054,4.60147,2470.833,2023-11-03T11:12:12Z
2023-11-03T09:12:49Z,42.805,6.029,13.3082,4.60158,2470.81,2023-11-03T11:15:15Z
2023-11-03T09:15:52Z,42.805,6.029,13.3057,4.60169,2470.871,2023-11-03T11:18:18Z
2023-11-03T09:18:55Z,42.805,6.029,13.3063,4.60179,2470.857,2023-11-03T11:21:21Z
2023-11-03T09:21:58Z,42.805,6.029,13.3054,4.60144,2470.787,2023-11-03T11:24:24Z
2023-11-03T09:25:01Z,42.805,6.029,13.3061,4.60162,2470.847,2023-11-03T11:27:27Z
2023-11-03T09:28:04Z,42.805,6.029,13.3058,4.60177,2470.847,2023-11-03T11:30:31Z
2023-11-03T09:31:06Z,42.805,6.029,13.3058,4.60169,2470.833,2023-11-03T11:33:33Z
2023-11-03T09:34:09Z,42.805,6.029,13.3073,4.60205,2470.833,2023-11-03T11:36:36Z
2023-11-03T09:37:13Z,42.805,6.029,13.3054,4.60168,2470.833,2023-11-03T11:39:39Z
2023-11-03T09:40:16Z,42.805,6.029,13.3053,4.60136,2470.871,2023-11-03T11:42:42Z
2023-11-03T09:43:19Z,42.805,6.029,13.3063,4.60147,2470.857,2023-11-03T11:45:45Z
2023-11-03T09:46:22Z,42.805,6.029,13.3076,4.60200,2470.847,2023-11-03T11:48:48Z
2023-11-03T09:49:25Z,42.805,6.029,13.3046,4.60170,2470.857,2023-11-03T11:51:51Z
2023-11-03T09:52:28Z,42.805,6.029,13.3063,4.60131,2470.81,2023-11-03T11:54:54Z
2023-11-03T09:55:31Z,42.805,6.029,13.3063,4.60180,2470.871,2023-11-03T11:57:57Z
2023-11-03T09:58:34Z,42.805,6.029,13.3066,4.60193,2470.833,2023-11-03T12:01:00Z
2023-11-03T10:01:37Z,42.805,6.029,13.3067,4.60154,2470.847,2023-11-03T12:04:03Z
2023-11-03T10:04:40Z,42.805,6.029,13.3076,4.60152,2470.847,2023-11-03T12:07:06Z
2023-11-03T10:07:43Z,42.805,6.029,13.3067,4.60186,2470.847,2023-11-03T12:10:10Z
2023-11-03T10:10:46Z,42.805,6.029,13.3076,4.60160,2470.833,2023-11-03T12:13:13Z
2023-11-03T10:13:50Z,42.805,6.029,13.3056,4.60168,2470.847,2023-11-03T12:16:16Z
2023-11-03T10:16:53Z,42.805,6.029,13.3069,4.60178,2470.847,2023-11-03T12:19:19Z
2023-11-03T10:19:56Z,42.805,6.029,13.3070,4.60143,2470.871,2023-11-03T12:22:22Z
2023-11-03T10:22:59Z,42.805,6.029,13.3053,4.60150,2470.857,2023-11-03T12:25:25Z
2023-11-03T10:26:02Z,42.805,6.029,13.3062,4.60132,2470.833,2023-11-03T12:28:28Z
2023-11-03T10:29:05Z,42.805,6.029,13.3061,4.60189,2470.857,2023-11-03T12:31:31Z
2023-11-03T10:32:08Z,42.805,6.029,13.3061,4.60138,2470.847,2023-11-03T12:34:34Z
2023-11-03T10:35:11Z,42.805,6.029,13.3066,4.60162,2470.843,2023-11-03T12:37:37Z
2023-11-03T10:38:14Z,42.805,6.029,13.3071,4.60154,2470.857,2023-11-03T12:40:40Z
2023-11-03T10:41:17Z,42.805,6.029,13.3086,4.60151,2470.871,2023-11-03T12:43:43Z
2023-11-03T10:44:20Z,42.805,6.029,13.3071,4.60141,2470.871,2023-11-03T12:46:46Z
2023-11-03T10:47:23Z,42.805,6.029,13.3050,4.60146,2470.833,2023-11-03T12:49:50Z
2023-11-03T10:50:26Z,42.805,6.029,13.3061,4.60135,2470.833,2023-11-03T12:52:53Z
2023-11-03T10:53:30Z,42.805,6.029,13.3081,4.60157,2470.871,2023-11-03T12:55:56Z
2023-11-03T10:56:33Z,42.805,6.029,13.3057,4.60157,2470.857,2023-11-03T12:58:59Z
2023-11-03T10:59:36Z,42.805,6.029,13.3065,4.60160,2470.857,2023-11-03T13:02:02Z
2023-11-03T11:02:39Z,42.805,6.029,13.3054,4.60176,2470.88,2023-11-03T13:05:05Z
2023-11-03T11:05:42Z,42.805,6.029,13.3085,4.60188,2470.833,2023-11-03T13:08:08Z
2023-11-03T11:08:45Z,42.805,6.029,13.3059,4.60167,2470.871,2023-11-03T13:11:11Z
2023-11-03T11:11:48Z,42.805,6.029,13.3074,4.60191,2470.857,2023-11-03T13:14:14Z
2023-11-03T11:14:51Z,42.805,6.029,13.3062,4.60124,2470.847,2023-11-03T13:17:17Z
2023-11-03T11:17:54Z,42.805,6.029,13.3065,4.60136,2470.857,2023-11-03T13:20:20Z
2023-11-03T11:20:57Z,42.805,6.029,13.3065,4.60150,2470.857,2023-11-03T13:23:23Z
2023-11-03T11:24:00Z,42.805,6.029,13.3061,4.60119,2470.833,2023-11-03T13:26:27Z
2023-11-03T11:27:03Z,42.805,6.029,13.3071,4.60132,2470.871,2023-11-03T13:29:30Z
2023-11-03T11:30:07Z,42.805,6.029,13.3056,4.60175,2470.871,2023-11-03T13:32:33Z
2023-11-03T11:33:10Z,42.805,6.029,13.3052,4.60135,2470.857,2023-11-03T13:35:36Z
2023-11-03T11:36:13Z,42.805,6.029,13.3051,4.60167,2470.81,2023-11-03T13:38:39Z
2023-11-03T11:39:16Z,42.805,6.029,13.3063,4.60184,2470.833,2023-11-03T13:41:42Z
2023-11-03T11:42:19Z,42.805,6.029,13.3073,4.60173,2470.847,2023-11-03T13:44:45Z
2023-11-03T11:45:22Z,42.805,6.029,13.3076,4.60205,2470.833,2023-11-03T13:47:48Z
2023-11-03T11:48:25Z,42.805,6.029,13.3067,4.60162,2470.857,2023-11-03T13:50:51Z
2023-11-03T11:51:28Z,42.805,6.029,13.3073,4.60194,2470.847,2023-11-03T13:53:54Z
2023-11-03T11:54:31Z,42.805,6.029,13.3086,4.60184,2470.833,2023-11-03T13:56:58Z
2023-11-03T11:57:34Z,42.805,6.029,13.3073,4.60135,2470.824,2023-11-03T14:00:01Z
2023-11-03T12:00:38Z,42.805,6.029,13.3088,4.60133,2470.833,2023-11-03T14:03:04Z
2023-11-03T12:03:41Z,42.805,6.029,13.3069,4.60129,2470.81,2023-11-03T14:06:07Z
2023-11-03T12:06:44Z,42.805,6.029,13.3059,4.60158,2470.847,2023-11-03T14:09:10Z
2023-11-03T12:09:47Z,42.805,6.029,13.3056,4.60192,2470.871,2023-11-03T14:12:13Z
2023-11-03T12:12:50Z,42.805,6.029,13.3073,4.60234,2470.847,2023-11-03T14:15:16Z
2023-11-03T12:15:53Z,42.805,6.029,13.3066,4.60217,2470.871,2023-11-03T14:18:19Z
2023-11-03T12:18:56Z,42.805,6.029,13.3081,4.60170,2470.847,2023-11-03T14:21:22Z
2023-11-03T12:21:59Z,42.805,6.029,13.3051,4.60182,2470.847,2023-11-03T14:24:25Z
2023-11-03T12:25:02Z,42.805,6.029,13.3062,4.60190,2470.81,2023-11-03T14:27:28Z
2023-11-03T12:28:05Z,42.805,6.029,13.3067,4.60165,2470.833,2023-11-03T14:30:31Z
2023-11-03T12:31:08Z,42.805,6.029,13.3089,4.60146,2470.833,2023-11-03T14:33:35Z
2023-11-03T12:34:11Z,42.805,6.029,13.3101,4.60160,2470.847,2023-11-03T14:36:38Z
2023-11-03T12:37:15Z,42.805,6.029,13.3104,4.60155,2470.847,2023-11-03T14:39:41Z
2023-11-03T12:40:18Z,42.805,6.029,13.3122,4.60173,2470.833,2023-11-03T14:42:44Z
2023-11-03T12:43:21Z,42.805,6.029,13.3104,4.60174,2470.824,2023-11-03T14:45:47Z
2023-11-03T12:46:24Z,42.805,6.029,13.3106,4.60175,2470.824,2023-11-03T14:48:50Z
2023-11-03T12:49:27Z,42.805,6.029,13.3111,4.60171,2470.824,2023-11-03T14:51:53Z
2023-11-03T12:52:30Z,42.805,6.029,13.3112,4.60137,2470.871,2023-11-03T14:54:56Z
2023-11-03T12:55:33Z,42.805,6.029,13.3098,4.60150,2470.81,2023-11-03T14:57:59Z
2023-11-03T12:58:36Z,42.805,6.029,13.3095,4.60152,2470.824,2023-11-03T15:01:02Z
2023-11-03T13:01:39Z,42.805,6.029,13.3103,4.60127,2470.824,2023-11-03T15:04:05Z
2023-11-03T13:04:42Z,42.805,6.029,13.3093,4.60163,2470.824,2023-11-03T15:07:08Z
2023-11-03T13:07:45Z,42.805,6.029,13.3099,4.60144,2470.833,2023-11-03T15:10:11Z
2023-11-03T13:10:48Z,42.805,6.029,13.3102,4.60131,2470.8,2023-11-03T15:13:15Z
2023-11-03T13:13:51Z,42.805,6.029,13.3116,4.60128,2470.8,2023-11-03T15:16:18Z
2023-11-03T13:16:55Z,42.805,6.029,13.3118,4.60128,2470.81,2023-11-03T15:19:21Z
2023-11-03T13:19:58Z,42.805,6.029,13.3103,4.60129,2470.787,2023-11-03T15:22:24Z
2023-11-03T13:23:01Z,42.805,6.029,13.3101,4.60131,2470.777,2023-11-03T15:25:27Z
2023-11-03T13:26:04Z,42.805,6.029,13.3107,4.60135,2470.8,2023-11-03T15:28:30Z
2023-11-03T13:29:07Z,42.805,6.029,13.3087,4.60129,2470.8,2023-11-03T15:31:33Z
2023-11-03T13:32:10Z,42.805,6.029,13.3071,4.60146,2470.824,2023-11-03T15:34:36Z
2023-11-03T13:35:13Z,42.805,6.029,13.3049,4.60153,2470.8,2023-11-03T15:37:39Z
2023-11-03T13:38:16Z,42.805,6.029,13.3070,4.60151,2470.777,2023-11-03T15:40:42Z
2023-11-03T13:41:19Z,42.805,6.029,13.3071,4.60134,2470.824,2023-11-03T15:43:45Z
2023-11-03T13:44:22Z,42.805,6.029,13.3083,4.60138,2470.8,2023-11-03T15:46:48Z
2023-11-03T13:47:25Z,42.805,6.029,13.3097,4.60140,2470.8,2023-11-03T15:49:52Z
2023-11-03T13:50:28Z,42.805,6.029,13.3084,4.60118,2470.763,2023-11-03T15:52:55Z
2023-11-03T13:53:32Z,42.805,6.029,13.3070,4.60127,2470.777,2023-11-03T15:55:58Z
2023-11-03T13:56:35Z,42.805,6.029,13.3054,4.60112,2470.8,2023-11-03T15:59:01Z
2023-11-03T13:59:38Z,42.805,6.029,13.3065,4.60130,2470.787,2023-11-03T16:02:04Z
2023-11-03T14:02:41Z,42.805,6.029,13.3063,4.60150,2470.74,2023-11-03T16:05:07Z
2023-11-03T14:05:44Z,42.805,6.029,13.3072,4.60155,2470.763,2023-11-03T16:08:10Z
2023-11-03T14:08:47Z,42.805,6.029,13.3071,4.60148,2470.8,2023-11-03T16:11:13Z
2023-11-03T14:11:50Z,42.805,6.029,13.3063,4.60154,2470.777,2023-11-03T16:14:16Z
2023-11-03T14:14:53Z,42.805,6.029,13.3070,4.60159,2470.81,2023-11-03T16:17:19Z
2023-11-03T14:17:56Z,42.805,6.029,13.3072,4.60150,2470.763,2023-11-03T16:20:22Z
2023-11-03T14:20:59Z,42.805,6.029,13.3073,4.60142,2470.777,2023-11-03T16:23:25Z
2023-11-03T14:24:02Z,42.805,6.029,13.3076,4.60185,2470.787,2023-11-03T16:26:28Z
2023-11-03T14:27:05Z,42.805,6.029,13.3070,4.60165,2470.763,2023-11-03T16:29:32Z
2023-11-03T14:30:08Z,42.805,6.029,13.3068,4.60142,2470.754,2023-11-03T16:32:35Z
2023-11-03T14:33:12Z,42.805,6.029,13.3101,4.60125,2470.763,2023-11-03T16:35:38Z
2023-11-03T14:36:15Z,42.805,6.029,13.3105,4.60131,2470.754,2023-11-03T16:38:41Z
2023-11-03T14:39:18Z,42.805,6.029,13.3096,4.60119,2470.717,2023-11-03T16:41:44Z
2023-11-03T14:42:21Z,42.805,6.029,13.3093,4.60121,2470.8,2023-11-03T16:44:47Z
2023-11-03T14:45:24Z,42.805,6.029,13.3113,4.60122,2470.763,2023-11-03T16:47:50Z
2023-11-03T14:48:27Z,42.805,6.029,13.3118,4.60144,2470.74,2023-11-03T16:50:53Z
2023-11-03T14:51:30Z,42.805,6.029,13.3101,4.60160,2470.74,2023-11-03T16:53:56Z
2023-11-03T14:54:33Z,42.805,6.029,13.3096,4.60142,2470.777,2023-11-03T16:56:59Z
2023-11-03T14:57:36Z,42.805,6.029,13.3104,4.60172,2470.787,2023-11-03T17:00:02Z
2023-11-03T15:00:39Z,42.805,6.029,13.3097,4.60150,2470.8,2023-11-03T17:03:05Z